| time (UTC) | temp F | wind direction | speed MPH | gust MPH | rain 1hr in | rain 24hr in | rain mn in | humidity % | barometer mb |
| 20260902023413 | 75 | 340 | 0.0 | 0.0 | 0.00 | 0.00 | 0.00 | 87 | 1045.0 |
| 20260902022900 | 75 | 339 | 0.0 | 0.0 | 0.00 | 0.00 | 0.00 | 86 | 1045.0 |
| 20260902022628 | 76 | 339 | 0.0 | 0.0 | 0.00 | 0.00 | 0.00 | 86 | 1045.0 |
| 20260902021854 | 76 | 339 | 0.0 | 0.0 | 0.00 | 0.00 | 0.00 | 85 | 1045.1 |
| 20260902021349 | 76 | 339 | 0.0 | 0.0 | 0.00 | 0.00 | 0.00 | 84 | 1045.1 |
| 20260902020841 | 77 | 340 | 0.0 | 0.0 | 0.00 | 0.00 | 0.00 | 83 | 1045.0 |
| 20260902020555 | 77 | 340 | 0.0 | 0.0 | 0.00 | 0.00 | 0.00 | 83 | 1045.0 |
| 20260902015829 | 78 | 339 | 0.0 | 0.0 | 0.00 | 0.00 | 0.00 | 82 | 1045.0 |
| 20260902015319 | 78 | 340 | 0.0 | 0.0 | 0.00 | 0.00 | 0.00 | 81 | 1045.0 |
| 20260902014817 | 79 | 340 | 0.0 | 0.0 | 0.00 | 0.00 | 0.00 | 80 | 1045.0 |
| 20260902014312 | 80 | 339 | 0.0 | 0.0 | 0.00 | 0.00 | 0.00 | 78 | 1045.0 |
| 20260902013805 | 81 | 339 | 0.0 | 1.0 | 0.00 | 0.00 | 0.00 | 76 | 1045.0 |
| 20260902013300 | 81 | 340 | 0.0 | 2.0 | 0.00 | 0.00 | 0.00 | 76 | 1045.0 |
| 20260902012753 | 82 | 255 | 0.0 | 2.0 | 0.00 | 0.00 | 0.00 | 75 | 1045.0 |
| 20260902012509 | 82 | 255 | 1.0 | 4.0 | 0.00 | 0.00 | 0.00 | 75 | 1044.5 |
| 20260902011736 | 82 | 262 | 1.0 | 4.0 | 0.00 | 0.00 | 0.00 | 74 | 1044.5 |
| 20260902011235 | 82 | 248 | 1.0 | 4.0 | 0.00 | 0.00 | 0.00 | 74 | 1044.5 |
| 20260902010946 | 82 | 260 | 1.0 | 5.0 | 0.00 | 0.00 | 0.00 | 75 | 1044.2 |
| 20260902010223 | 82 | 252 | 1.0 | 5.0 | 0.00 | 0.00 | 0.00 | 75 | 1044.2 |
| 20260902005718 | 82 | 241 | 0.0 | 3.0 | 0.00 | 0.00 | 0.00 | 76 | 1044.2 |
| 20260902005211 | 82 | 236 | 0.0 | 3.0 | 0.00 | 0.00 | 0.00 | 76 | 1044.1 |
| 20260902004706 | 82 | 215 | 0.0 | 0.0 | 0.00 | 0.00 | 0.00 | 77 | 1044.1 |
| 20260902004155 | 83 | 213 | 0.0 | 1.0 | 0.00 | 0.00 | 0.00 | 75 | 1044.1 |
| 20260902003654 | 83 | 213 | 0.0 | 1.0 | 0.00 | 0.00 | 0.00 | 75 | 1043.9 |
| 20260902003147 | 84 | 205 | 1.0 | 5.0 | 0.00 | 0.00 | 0.00 | 74 | 1043.9 |
| 20260902002907 | 84 | 238 | 1.0 | 5.0 | 0.00 | 0.00 | 0.00 | 73 | 1043.9 |
| 20260902002135 | 84 | 148 | 2.0 | 8.0 | 0.00 | 0.00 | 0.00 | 73 | 1043.9 |
| 20260902001629 | 84 | 202 | 2.0 | 10.0 | 0.00 | 0.00 | 0.00 | 73 | 1043.9 |
| 20260902001348 | 83 | 215 | 1.0 | 10.0 | 0.00 | 0.00 | 0.00 | 74 | 1043.9 |
| 20260902000840 | 83 | 252 | 0.0 | 6.0 | 0.00 | 0.00 | 0.00 | 74 | 1043.7 |
| 20260902000111 | 83 | 240 | 0.0 | 6.0 | 0.00 | 0.00 | 0.00 | 74 | 1043.7 |
| 20260901235605 | 83 | 275 | 0.0 | 0.0 | 0.00 | 0.00 | 0.00 | 74 | 1043.7 |
| 20260901235059 | 84 | 268 | 0.0 | 1.0 | 0.00 | 0.00 | 0.00 | 73 | 1043.7 |
| 20260901234553 | 84 | 256 | 0.0 | 1.0 | 0.00 | 0.00 | 0.00 | 72 | 1043.7 |
| 20260901234047 | 85 | 281 | 0.0 | 1.0 | 0.00 | 0.00 | 0.00 | 72 | 1043.7 |
| 20260901233541 | 86 | 289 | 0.0 | 1.0 | 0.00 | 0.00 | 0.00 | 71 | 1043.6 |
| 20260901233031 | 86 | 223 | 0.0 | 3.0 | 0.00 | 0.00 | 0.00 | 70 | 1043.6 |
| 20260901232529 | 87 | 282 | 2.0 | 9.0 | 0.00 | 0.00 | 0.00 | 69 | 1043.6 |
| 20260901232023 | 87 | 280 | 2.0 | 9.0 | 0.00 | 0.00 | 0.00 | 68 | 1043.5 |
| 20260901231517 | 87 | 228 | 2.0 | 7.0 | 0.00 | 0.00 | 0.00 | 68 | 1043.5 |
| 20260901231012 | 88 | 217 | 2.0 | 7.0 | 0.00 | 0.00 | 0.00 | 68 | 1043.5 |
| 20260901230505 | 88 | 161 | 2.0 | 7.0 | 0.00 | 0.00 | 0.00 | 68 | 1043.5 |
| 20260901225959 | 89 | 277 | 2.0 | 6.0 | 0.00 | 0.00 | 0.00 | 67 | 1043.5 |
| 20260901225710 | 89 | 280 | 2.0 | 8.0 | 0.00 | 0.00 | 0.00 | 68 | 1043.5 |
| 20260901225210 | 89 | 257 | 3.0 | 8.0 | 0.00 | 0.00 | 0.00 | 68 | 1043.7 |
| 20260901224449 | 89 | 232 | 3.0 | 10.0 | 0.00 | 0.00 | 0.00 | 67 | 1043.7 |
| 20260901223949 | 89 | 236 | 3.0 | 10.0 | 0.00 | 0.00 | 0.00 | 67 | 1043.7 |
| 20260901223447 | 89 | 71 | 2.0 | 9.0 | 0.00 | 0.00 | 0.00 | 68 | 1043.6 |
| 20260901222947 | 89 | 259 | 2.0 | 7.0 | 0.00 | 0.00 | 0.00 | 68 | 1043.6 |
| 20260901222446 | 88 | 296 | 2.0 | 7.0 | 0.00 | 0.00 | 0.00 | 68 | 1043.6 |
| 20260901221945 | 88 | 294 | 2.0 | 6.0 | 0.00 | 0.00 | 0.00 | 68 | 1043.8 |
| 20260901221443 | 89 | 259 | 1.0 | 6.0 | 0.00 | 0.00 | 0.00 | 68 | 1043.8 |
| 20260901220943 | 89 | 258 | 2.0 | 5.0 | 0.00 | 0.00 | 0.00 | 68 | 1043.8 |
| 20260901220442 | 89 | 234 | 2.0 | 5.0 | 0.00 | 0.00 | 0.00 | 68 | 1043.7 |
| 20260901215940 | 89 | 229 | 2.0 | 9.0 | 0.00 | 0.00 | 0.00 | 68 | 1043.7 |
| 20260901215439 | 89 | 135 | 3.0 | 9.0 | 0.00 | 0.00 | 0.00 | 68 | 1043.7 |
| 20260901214939 | 89 | 237 | 3.0 | 6.0 | 0.00 | 0.00 | 0.00 | 67 | 1043.7 |
| 20260901214438 | 90 | 318 | 3.0 | 8.0 | 0.00 | 0.00 | 0.00 | 67 | 1043.7 |
| 20260901213941 | 90 | 222 | 3.0 | 10.0 | 0.00 | 0.00 | 0.00 | 67 | 1043.7 |
| 20260901213441 | 90 | 99 | 4.0 | 12.0 | 0.00 | 0.00 | 0.00 | 66 | 1043.7 |
| 20260901213201 | 90 | 217 | 4.0 | 12.0 | 0.00 | 0.00 | 0.00 | 67 | 1043.7 |
| 20260901212440 | 90 | 227 | 4.0 | 11.0 | 0.00 | 0.00 | 0.00 | 67 | 1043.7 |
| 20260901212015 | 90 | 232 | 3.0 | 12.0 | 0.00 | 0.00 | 0.00 | 67 | 1043.7 |
| 20260901210923 | 90 | 208 | 4.0 | 10.0 | 0.00 | 0.00 | 0.00 | 65 | 1043.7 |
| 20260901210417 | 90 | 265 | 4.0 | 11.0 | 0.00 | 0.00 | 0.00 | 65 | 1043.5 |
| 20260901205911 | 91 | 265 | 4.0 | 14.0 | 0.00 | 0.00 | 0.00 | 64 | 1043.5 |
| 20260901205405 | 92 | 247 | 4.0 | 14.0 | 0.00 | 0.00 | 0.00 | 62 | 1043.5 |
| 20260901204859 | 92 | 196 | 5.0 | 14.0 | 0.00 | 0.00 | 0.00 | 62 | 1043.4 |
| 20260901204616 | 93 | 304 | 4.0 | 14.0 | 0.00 | 0.00 | 0.00 | 61 | 1043.4 |
| 20260901204101 | 93 | 252 | 4.0 | 11.0 | 0.00 | 0.00 | 0.00 | 61 | 1043.3 |
| 20260901203341 | 93 | 221 | 4.0 | 11.0 | 0.00 | 0.00 | 0.00 | 62 | 1043.3 |
| 20260901202834 | 93 | 230 | 4.0 | 11.0 | 0.00 | 0.00 | 0.00 | 61 | 1043.3 |
| 20260901202329 | 93 | 245 | 3.0 | 11.0 | 0.00 | 0.00 | 0.00 | 62 | 1043.4 |
| 20260901201822 | 93 | 264 | 4.0 | 11.0 | 0.00 | 0.00 | 0.00 | 61 | 1043.4 |
| 20260901201317 | 93 | 248 | 4.0 | 13.0 | 0.00 | 0.00 | 0.00 | 61 | 1043.4 |
| 20260901200811 | 94 | 268 | 4.0 | 13.0 | 0.00 | 0.00 | 0.00 | 60 | 1043.4 |
| 20260901200300 | 93 | 95 | 5.0 | 11.0 | 0.00 | 0.00 | 0.00 | 60 | 1043.4 |
| 20260901195758 | 94 | 255 | 6.0 | 13.0 | 0.00 | 0.00 | 0.00 | 59 | 1043.4 |
| 20260901195252 | 94 | 111 | 6.0 | 16.0 | 0.00 | 0.00 | 0.00 | 58 | 1043.4 |
| 20260901194742 | 94 | 224 | 4.0 | 16.0 | 0.00 | 0.00 | 0.00 | 58 | 1043.4 |
| 20260901194241 | 95 | 259 | 4.0 | 10.0 | 0.00 | 0.00 | 0.00 | 58 | 1043.4 |
| 20260901193734 | 94 | 221 | 4.0 | 11.0 | 0.00 | 0.00 | 0.00 | 58 | 1043.8 |
| 20260901193229 | 94 | 219 | 4.0 | 12.0 | 0.00 | 0.00 | 0.00 | 59 | 1043.8 |
| 20260901192718 | 95 | 138 | 4.0 | 12.0 | 0.00 | 0.00 | 0.00 | 58 | 1043.8 |
| 20260901192217 | 94 | 271 | 5.0 | 12.0 | 0.00 | 0.00 | 0.00 | 59 | 1043.9 |
| 20260901191711 | 94 | 265 | 5.0 | 12.0 | 0.00 | 0.00 | 0.00 | 59 | 1043.9 |
| 20260901191206 | 94 | 241 | 6.0 | 14.0 | 0.00 | 0.00 | 0.00 | 58 | 1043.9 |
| 20260901190659 | 94 | 323 | 5.0 | 14.0 | 0.00 | 0.00 | 0.00 | 60 | 1044.2 |
| 20260901190152 | 94 | 279 | 5.0 | 14.0 | 0.00 | 0.00 | 0.00 | 58 | 1044.2 |
| 20260901185904 | 94 | 227 | 5.0 | 14.0 | 0.00 | 0.00 | 0.00 | 59 | 1044.2 |
| 20260901185136 | 94 | 238 | 7.0 | 15.0 | 0.00 | 0.00 | 0.00 | 59 | 1044.2 |
| 20260901184634 | 93 | 299 | 6.0 | 15.0 | 0.00 | 0.00 | 0.00 | 60 | 1044.2 |
| 20260901184129 | 93 | 254 | 4.0 | 15.0 | 0.00 | 0.00 | 0.00 | 61 | 1044.2 |
| 20260901183622 | 93 | 242 | 3.0 | 11.0 | 0.00 | 0.00 | 0.00 | 64 | 1044.6 |
| 20260901183116 | 92 | 241 | 4.0 | 12.0 | 0.00 | 0.00 | 0.00 | 64 | 1044.6 |
| 20260901182610 | 92 | 247 | 5.0 | 17.0 | 0.00 | 0.00 | 0.00 | 63 | 1044.6 |
| 20260901182542 | 93 | 290 | 5.0 | 17.0 | 0.00 | 0.00 | 0.00 | 63 | 1044.5 |
| 20260901181555 | 94 | 149 | 4.0 | 15.0 | 0.00 | 0.00 | 0.00 | 63 | 1044.5 |
| 20260901181052 | 93 | 258 | 4.0 | 15.0 | 0.00 | 0.00 | 0.00 | 63 | 1044.5 |
| 20260901180548 | 93 | 227 | 4.0 | 11.0 | 0.00 | 0.00 | 0.00 | 64 | 1044.6 |
| 20260901180040 | 93 | 198 | 4.0 | 11.0 | 0.00 | 0.00 | 0.00 | 63 | 1044.6 |
| 20260901175534 | 93 | 254 | 4.0 | 11.0 | 0.00 | 0.00 | 0.00 | 64 | 1044.6 |
| 20260901175029 | 93 | 255 | 4.0 | 11.0 | 0.00 | 0.00 | 0.00 | 64 | 1044.7 |
| 20260901174522 | 93 | 244 | 4.0 | 11.0 | 0.00 | 0.00 | 0.00 | 64 | 1044.7 |
| 20260901174017 | 92 | 232 | 4.0 | 11.0 | 0.00 | 0.00 | 0.00 | 65 | 1044.7 |
| 20260901173510 | 92 | 242 | 3.0 | 8.0 | 0.00 | 0.00 | 0.00 | 64 | 1044.6 |
| 20260901173005 | 92 | 138 | 3.0 | 8.0 | 0.00 | 0.00 | 0.00 | 67 | 1044.6 |
| 20260901172502 | 92 | 272 | 3.0 | 8.0 | 0.00 | 0.00 | 0.00 | 66 | 1044.6 |
| 20260901172226 | 92 | 237 | 3.0 | 10.0 | 0.00 | 0.00 | 0.00 | 66 | 1044.8 |
| 20260901171458 | 92 | 190 | 4.0 | 10.0 | 0.00 | 0.00 | 0.00 | 68 | 1044.8 |
| 20260901170958 | 91 | 202 | 4.0 | 13.0 | 0.00 | 0.00 | 0.00 | 69 | 1044.8 |
| 20260901170457 | 90 | 262 | 3.0 | 13.0 | 0.00 | 0.00 | 0.00 | 69 | 1045.0 |
| 20260901170221 | 89 | 236 | 3.0 | 8.0 | 0.00 | 0.00 | 0.00 | 71 | 1045.0 |
| 20260901165457 | 89 | 272 | 4.0 | 9.0 | 0.00 | 0.00 | 0.00 | 70 | 1045.0 |
| 20260901164958 | 89 | 268 | 3.0 | 9.0 | 0.00 | 0.00 | 0.00 | 70 | 1045.3 |
| 20260901164458 | 89 | 184 | 3.0 | 9.0 | 0.00 | 0.00 | 0.00 | 70 | 1045.3 |
| 20260901163956 | 89 | 258 | 3.0 | 11.0 | 0.00 | 0.00 | 0.00 | 70 | 1045.3 |
| 20260901163455 | 89 | 232 | 3.0 | 11.0 | 0.00 | 0.00 | 0.00 | 69 | 1045.1 |
| 20260901162952 | 89 | 277 | 3.0 | 8.0 | 0.00 | 0.00 | 0.00 | 70 | 1045.1 |
| 20260901162452 | 89 | 293 | 2.0 | 8.0 | 0.00 | 0.00 | 0.00 | 70 | 1045.1 |
| 20260901161952 | 90 | 268 | 2.0 | 6.0 | 0.00 | 0.00 | 0.00 | 69 | 1045.5 |
| 20260901161718 | 90 | 189 | 3.0 | 8.0 | 0.00 | 0.00 | 0.00 | 70 | 1045.5 |
| 20260901161212 | 90 | 290 | 3.0 | 8.0 | 0.00 | 0.00 | 0.00 | 69 | 1045.5 |
| 20260901160447 | 90 | 259 | 4.0 | 12.0 | 0.00 | 0.00 | 0.00 | 69 | 1045.5 |
| 20260901155936 | 90 | 223 | 5.0 | 12.0 | 0.00 | 0.00 | 0.00 | 68 | 1045.5 |
| 20260901155435 | 91 | 258 | 4.0 | 11.0 | 0.00 | 0.00 | 0.00 | 68 | 1045.5 |
| 20260901154936 | 91 | 257 | 4.0 | 8.0 | 0.00 | 0.00 | 0.00 | 67 | 1045.5 |
| 20260901154435 | 90 | 297 | 4.0 | 9.0 | 0.00 | 0.00 | 0.00 | 68 | 1045.5 |
| 20260901153936 | 90 | 338 | 4.0 | 9.0 | 0.00 | 0.00 | 0.00 | 67 | 1045.5 |
| 20260901153436 | 90 | 224 | 3.0 | 8.0 | 0.00 | 0.00 | 0.00 | 69 | 1045.5 |
| 20260901152935 | 90 | 248 | 3.0 | 7.0 | 0.00 | 0.00 | 0.00 | 70 | 1045.5 |
| 20260901152435 | 90 | 181 | 3.0 | 13.0 | 0.00 | 0.00 | 0.00 | 71 | 1045.5 |
| 20260901151936 | 89 | 189 | 3.0 | 13.0 | 0.00 | 0.00 | 0.00 | 70 | 1045.6 |
| 20260901151656 | 89 | 289 | 3.0 | 7.0 | 0.00 | 0.00 | 0.00 | 71 | 1045.6 |
| 20260901151137 | 89 | 260 | 2.0 | 11.0 | 0.00 | 0.00 | 0.00 | 73 | 1045.6 |
| 20260901150412 | 88 | 235 | 3.0 | 11.0 | 0.00 | 0.00 | 0.00 | 72 | 1045.5 |
| 20260901145911 | 88 | 169 | 2.0 | 7.0 | 0.00 | 0.00 | 0.00 | 73 | 1045.5 |
| 20260901145411 | 89 | 231 | 3.0 | 12.0 | 0.00 | 0.00 | 0.00 | 72 | 1045.5 |
| 20260901144914 | 88 | 123 | 4.0 | 12.0 | 0.00 | 0.00 | 0.00 | 73 | 1045.7 |
| 20260901144414 | 88 | 235 | 4.0 | 9.0 | 0.00 | 0.00 | 0.00 | 73 | 1045.7 |
| 20260901143911 | 88 | 218 | 4.0 | 10.0 | 0.00 | 0.00 | 0.00 | 74 | 1045.7 |
| 20260901143411 | 88 | 241 | 3.0 | 10.0 | 0.00 | 0.00 | 0.00 | 74 | 1045.6 |
| 20260901142909 | 87 | 223 | 3.0 | 8.0 | 0.00 | 0.00 | 0.00 | 74 | 1045.6 |
| 20260901142627 | 87 | 297 | 3.0 | 8.0 | 0.00 | 0.00 | 0.00 | 76 | 1045.6 |
| 20260901141903 | 86 | 277 | 3.0 | 10.0 | 0.00 | 0.00 | 0.00 | 75 | 1045.9 |
| 20260901141357 | 86 | 270 | 3.0 | 10.0 | 0.00 | 0.00 | 0.00 | 76 | 1045.9 |
| 20260901140851 | 86 | 241 | 3.0 | 9.0 | 0.00 | 0.00 | 0.00 | 77 | 1046.0 |
| 20260901140606 | 86 | 246 | 2.0 | 6.0 | 0.00 | 0.00 | 0.00 | 76 | 1046.0 |
| 20260901135839 | 85 | 225 | 1.0 | 4.0 | 0.00 | 0.00 | 0.00 | 78 | 1046.0 |
| 20260901135333 | 85 | 267 | 1.0 | 5.0 | 0.00 | 0.00 | 0.00 | 79 | 1046.0 |
| 20260901134828 | 85 | 157 | 1.0 | 5.0 | 0.00 | 0.00 | 0.00 | 79 | 1046.0 |
| 20260901134321 | 84 | 244 | 1.0 | 3.0 | 0.00 | 0.00 | 0.00 | 80 | 1046.0 |
| 20260901133811 | 83 | 182 | 0.0 | 3.0 | 0.00 | 0.00 | 0.00 | 82 | 1046.0 |
| 20260901133309 | 83 | 223 | 0.0 | 1.0 | 0.00 | 0.00 | 0.00 | 85 | 1046.0 |
| 20260901133022 | 82 | 194 | 1.0 | 2.0 | 0.00 | 0.00 | 0.00 | 84 | 1046.0 |
| 20260901132523 | 81 | 216 | 1.0 | 2.0 | 0.00 | 0.00 | 0.00 | 85 | 1046.0 |
| 20260901131751 | 81 | 153 | 1.0 | 3.0 | 0.00 | 0.00 | 0.00 | 85 | 1046.0 |
| 20260901131240 | 80 | 189 | 1.0 | 3.0 | 0.00 | 0.00 | 0.00 | 86 | 1046.0 |
| 20260901130740 | 80 | 205 | 1.0 | 3.0 | 0.00 | 0.00 | 0.00 | 87 | 1046.1 |
| 20260901130452 | 79 | 282 | 0.0 | 2.0 | 0.00 | 0.00 | 0.00 | 87 | 1046.1 |
| 20260901125727 | 78 | 269 | 0.0 | 0.0 | 0.00 | 0.00 | 0.00 | 90 | 1046.1 |
| 20260901125221 | 77 | 238 | 0.0 | 0.0 | 0.00 | 0.00 | 0.00 | 91 | 1046.5 |
| 20260901124715 | 76 | 245 | 0.0 | 0.0 | 0.00 | 0.00 | 0.00 | 91 | 1046.5 |
| 20260901124210 | 75 | 236 | 0.0 | 0.0 | 0.00 | 0.00 | 0.00 | 92 | 1046.5 |
| 20260901123658 | 75 | 259 | 0.0 | 0.0 | 0.00 | 0.00 | 0.00 | 94 | 1046.6 |
| 20260901123158 | 74 | 259 | 0.0 | 0.0 | 0.00 | 0.00 | 0.00 | 94 | 1046.6 |
| 20260901122652 | 74 | 259 | 0.0 | 0.0 | 0.00 | 0.00 | 0.00 | 95 | 1046.6 |
| 20260901122408 | 73 | 269 | 0.0 | 0.0 | 0.00 | 0.00 | 0.00 | 96 | 1046.5 |
| 20260901121639 | 72 | 249 | 0.0 | 0.0 | 0.00 | 0.00 | 0.00 | 98 | 1046.5 |
| 20260901121133 | 71 | 247 | 0.0 | 1.0 | 0.00 | 0.00 | 0.00 | 99 | 1046.5 |
| 20260901120627 | 71 | 248 | 0.0 | 1.0 | 0.00 | 0.00 | 0.00 | 99 | 1046.5 |
| 20260901120116 | 70 | 56 | 0.0 | 0.0 | 0.00 | 0.00 | 0.00 | 99 | 1046.5 |
| 20260901115615 | 70 | 56 | 0.0 | 0.0 | 0.00 | 0.00 | 0.00 | 99 | 1046.5 |
| 20260901115331 | 70 | 56 | 0.0 | 0.0 | 0.00 | 0.00 | 0.00 | 99 | 1046.1 |
| 20260901115048 | 70 | 56 | 0.0 | 0.0 | 0.00 | 0.00 | 0.00 | 98 | 1046.1 |
| 20260901114057 | 69 | 56 | 0.0 | 0.0 | 0.00 | 0.00 | 0.00 | 98 | 1046.1 |
| 20260901113552 | 69 | 55 | 0.0 | 0.0 | 0.00 | 0.00 | 0.00 | 98 | 1046.1 |
| 20260901113045 | 69 | 56 | 0.0 | 0.0 | 0.00 | 0.00 | 0.00 | 98 | 1046.1 |
| 20260901112751 | 69 | 55 | 0.0 | 0.0 | 0.00 | 0.00 | 0.00 | 98 | 1046.1 |
| 20260901112033 | 69 | 56 | 0.0 | 0.0 | 0.00 | 0.00 | 0.00 | 98 | 1046.1 |
| 20260901111528 | 69 | 56 | 0.0 | 0.0 | 0.00 | 0.00 | 0.00 | 98 | 1046.1 |
| 20260901111021 | 69 | 55 | 0.0 | 0.0 | 0.00 | 0.00 | 0.00 | 98 | 1046.1 |
| 20260901110516 | 69 | 56 | 0.0 | 0.0 | 0.00 | 0.00 | 0.00 | 98 | 1046.0 |
| 20260901110009 | 69 | 56 | 0.0 | 0.0 | 0.00 | 0.00 | 0.00 | 98 | 1046.0 |
| 20260901105504 | 69 | 56 | 0.0 | 0.0 | 0.00 | 0.00 | 0.00 | 97 | 1046.0 |
| 20260901104952 | 69 | 55 | 0.0 | 0.0 | 0.00 | 0.00 | 0.00 | 97 | 1045.7 |
| 20260901104453 | 70 | 56 | 0.0 | 0.0 | 0.00 | 0.00 | 0.00 | 97 | 1045.7 |
| 20260901103944 | 70 | 56 | 0.0 | 0.0 | 0.00 | 0.00 | 0.00 | 98 | 1045.7 |
| 20260901103440 | 70 | 56 | 0.0 | 0.0 | 0.00 | 0.00 | 0.00 | 98 | 1045.6 |
| 20260901103422 | 70 | 56 | 0.0 | 0.0 | 0.00 | 0.00 | 0.00 | 98 | 1045.6 |
| 20260901102428 | 70 | 56 | 0.0 | 0.0 | 0.00 | 0.00 | 0.00 | 98 | 1045.6 |
| 20260901101921 | 70 | 56 | 0.0 | 0.0 | 0.00 | 0.00 | 0.00 | 98 | 1045.6 |
| 20260901101639 | 70 | 56 | 0.0 | 0.0 | 0.00 | 0.00 | 0.00 | 98 | 1045.6 |
| 20260901100909 | 70 | 56 | 0.0 | 0.0 | 0.00 | 0.00 | 0.00 | 98 | 1045.6 |
| 20260901100404 | 70 | 55 | 0.0 | 0.0 | 0.00 | 0.00 | 0.00 | 98 | 1045.9 |
| 20260901095856 | 70 | 56 | 0.0 | 0.0 | 0.00 | 0.00 | 0.00 | 98 | 1045.9 |
| 20260901095352 | 70 | 56 | 0.0 | 1.0 | 0.00 | 0.00 | 0.00 | 98 | 1045.7 |
| 20260901094845 | 70 | 56 | 0.0 | 1.0 | 0.00 | 0.00 | 0.00 | 98 | 1045.7 |
| 20260901094558 | 70 | 215 | 0.0 | 0.0 | 0.00 | 0.00 | 0.00 | 98 | 1045.7 |
| 20260901093828 | 70 | 215 | 0.0 | 0.0 | 0.00 | 0.00 | 0.00 | 98 | 1045.6 |
| 20260901093329 | 70 | 215 | 0.0 | 0.0 | 0.00 | 0.00 | 0.00 | 98 | 1045.6 |
| 20260901093044 | 70 | 213 | 0.0 | 0.0 | 0.00 | 0.00 | 0.00 | 98 | 1045.6 |
| 20260901092316 | 70 | 213 | 0.0 | 0.0 | 0.00 | 0.00 | 0.00 | 98 | 1045.6 |
| 20260901091809 | 70 | 213 | 0.0 | 0.0 | 0.00 | 0.00 | 0.00 | 98 | 1045.6 |
| 20260901091304 | 70 | 213 | 0.0 | 0.0 | 0.00 | 0.00 | 0.00 | 98 | 1045.6 |
| 20260901091018 | 70 | 213 | 0.0 | 0.0 | 0.00 | 0.00 | 0.00 | 98 | 1045.6 |
| 20260901090248 | 70 | 213 | 0.0 | 0.0 | 0.00 | 0.00 | 0.00 | 98 | 1045.6 |
| 20260901085745 | 70 | 213 | 0.0 | 0.0 | 0.00 | 0.00 | 0.00 | 98 | 1045.6 |
| 20260901085240 | 70 | 213 | 0.0 | 0.0 | 0.00 | 0.00 | 0.00 | 98 | 1045.6 |
| 20260901084733 | 70 | 213 | 0.0 | 0.0 | 0.00 | 0.00 | 0.00 | 98 | 1045.6 |
| 20260901084446 | 70 | 213 | 0.0 | 0.0 | 0.00 | 0.00 | 0.00 | 98 | 1045.6 |
| 20260901083727 | 69 | 213 | 0.0 | 0.0 | 0.00 | 0.00 | 0.00 | 98 | 1045.7 |
| 20260901083224 | 69 | 213 | 0.0 | 0.0 | 0.00 | 0.00 | 0.00 | 98 | 1045.7 |
| 20260901082723 | 70 | 213 | 0.0 | 0.0 | 0.00 | 0.00 | 0.00 | 98 | 1045.7 |
| 20260901082221 | 69 | 213 | 0.0 | 0.0 | 0.00 | 0.00 | 0.00 | 98 | 1045.9 |
| 20260901081721 | 69 | 213 | 0.0 | 0.0 | 0.00 | 0.00 | 0.00 | 98 | 1045.9 |
| 20260901081221 | 69 | 213 | 0.0 | 0.0 | 0.00 | 0.00 | 0.00 | 98 | 1045.9 |
| 20260901080719 | 69 | 213 | 0.0 | 0.0 | 0.00 | 0.00 | 0.00 | 98 | 1045.9 |
| 20260901080658 | 69 | 213 | 0.0 | 0.0 | 0.00 | 0.00 | 0.00 | 98 | 1045.9 |
| 20260901075940 | 69 | 213 | 0.0 | 0.0 | 0.00 | 0.00 | 0.00 | 98 | 1045.9 |
| 20260901075437 | 69 | 213 | 0.0 | 0.0 | 0.00 | 0.00 | 0.00 | 98 | 1045.9 |
| 20260901074711 | 70 | 213 | 0.0 | 0.0 | 0.00 | 0.00 | 0.00 | 98 | 1045.9 |
| 20260901074209 | 69 | 213 | 0.0 | 0.0 | 0.00 | 0.00 | 0.00 | 98 | 1045.9 |
| 20260901073706 | 70 | 213 | 0.0 | 0.0 | 0.00 | 0.00 | 0.00 | 98 | 1045.8 |
| 20260901073206 | 69 | 213 | 0.0 | 0.0 | 0.00 | 0.00 | 0.00 | 98 | 1045.8 |
| 20260901072709 | 70 | 213 | 0.0 | 0.0 | 0.00 | 0.00 | 0.00 | 98 | 1045.8 |
| 20260901072209 | 70 | 213 | 0.0 | 0.0 | 0.00 | 0.00 | 0.00 | 98 | 1045.6 |
| 20260901071925 | 70 | 213 | 0.0 | 0.0 | 0.00 | 0.00 | 0.00 | 97 | 1045.6 |
| 20260901071202 | 70 | 213 | 0.0 | 0.0 | 0.00 | 0.00 | 0.00 | 97 | 1045.6 |
| 20260901070651 | 70 | 213 | 0.0 | 0.0 | 0.00 | 0.00 | 0.00 | 97 | 1045.9 |
| 20260901070148 | 70 | 213 | 0.0 | 0.0 | 0.00 | 0.00 | 0.00 | 97 | 1045.9 |
| 20260901065648 | 70 | 213 | 0.0 | 0.0 | 0.00 | 0.00 | 0.00 | 97 | 1045.9 |
| 20260901065408 | 70 | 213 | 0.0 | 0.0 | 0.00 | 0.00 | 0.00 | 97 | 1046.0 |
| 20260901064649 | 71 | 213 | 0.0 | 0.0 | 0.00 | 0.00 | 0.00 | 97 | 1046.0 |
| 20260901064149 | 71 | 213 | 0.0 | 0.0 | 0.00 | 0.00 | 0.00 | 98 | 1046.0 |
| 20260901063649 | 71 | 213 | 0.0 | 0.0 | 0.00 | 0.00 | 0.00 | 97 | 1046.1 |
| 20260901063151 | 71 | 213 | 0.0 | 0.0 | 0.00 | 0.00 | 0.00 | 98 | 1046.1 |
| 20260901063144 | 71 | 213 | 0.0 | 0.0 | 0.00 | 0.00 | 0.00 | 98 | 1046.1 |
| 20260901062145 | 71 | 213 | 0.0 | 0.0 | 0.00 | 0.00 | 0.00 | 98 | 1046.1 |
| 20260901061635 | 71 | 213 | 0.0 | 0.0 | 0.00 | 0.00 | 0.00 | 98 | 1046.1 |
| 20260901061124 | 71 | 213 | 0.0 | 0.0 | 0.00 | 0.00 | 0.00 | 98 | 1046.1 |
| 20260901060626 | 71 | 213 | 0.0 | 0.0 | 0.00 | 0.00 | 0.00 | 98 | 1046.4 |
| 20260901060125 | 71 | 213 | 0.0 | 0.0 | 0.00 | 0.00 | 0.00 | 97 | 1046.4 |
| 20260901055847 | 71 | 213 | 0.0 | 0.0 | 0.00 | 0.00 | 0.00 | 97 | 1046.4 |
| 20260901055348 | 71 | 213 | 0.0 | 0.0 | 0.00 | 0.00 | 0.00 | 97 | 1046.4 |
| 20260901054625 | 71 | 213 | 0.0 | 0.0 | 0.00 | 0.00 | 0.00 | 97 | 1046.4 |
| 20260901054125 | 71 | 213 | 0.0 | 0.0 | 0.00 | 0.00 | 0.00 | 97 | 1046.4 |
| 20260901053624 | 72 | 213 | 0.0 | 0.0 | 0.00 | 0.00 | 0.00 | 97 | 1046.5 |
| 20260901053345 | 72 | 213 | 0.0 | 0.0 | 0.00 | 0.00 | 0.00 | 98 | 1046.5 |
| 20260901052617 | 72 | 213 | 0.0 | 0.0 | 0.00 | 0.00 | 0.00 | 97 | 1046.5 |
| 20260901052116 | 72 | 213 | 0.0 | 0.0 | 0.00 | 0.00 | 0.00 | 98 | 1046.6 |
| 20260901051605 | 72 | 213 | 0.0 | 0.0 | 0.00 | 0.00 | 0.00 | 98 | 1046.6 |
| 20260901051104 | 72 | 213 | 0.0 | 0.0 | 0.00 | 0.00 | 0.00 | 98 | 1046.6 |
| 20260901050601 | 72 | 213 | 0.0 | 0.0 | 0.00 | 0.00 | 0.00 | 98 | 1046.6 |
| 20260901050053 | 72 | 213 | 0.0 | 0.0 | 0.00 | 0.00 | 0.00 | 98 | 1046.6 |
| 20260901045548 | 72 | 213 | 0.0 | 0.0 | 0.00 | 0.00 | 0.00 | 98 | 1046.6 |
| 20260901045034 | 72 | 213 | 0.0 | 0.0 | 0.00 | 0.00 | 0.00 | 98 | 1046.6 |
| 20260901044536 | 72 | 213 | 0.0 | 0.0 | 0.00 | 0.00 | 0.00 | 98 | 1046.6 |
| 20260901044248 | 72 | 213 | 0.0 | 0.0 | 0.00 | 0.00 | 0.00 | 98 | 1046.6 |
| 20260901043524 | 72 | 213 | 0.0 | 0.0 | 0.00 | 0.00 | 0.00 | 98 | 1046.6 |
| 20260901043017 | 72 | 213 | 0.0 | 0.0 | 0.00 | 0.00 | 0.00 | 98 | 1046.6 |
| 20260901042512 | 72 | 213 | 0.0 | 0.0 | 0.00 | 0.00 | 0.00 | 98 | 1046.6 |
| 20260901042229 | 72 | 213 | 0.0 | 0.0 | 0.00 | 0.00 | 0.00 | 98 | 1046.7 |
| 20260901041453 | 72 | 213 | 0.0 | 0.0 | 0.00 | 0.00 | 0.00 | 98 | 1046.7 |
| 20260901041219 | 72 | 213 | 0.0 | 0.0 | 0.00 | 0.00 | 0.00 | 97 | 1046.7 |
| 20260901040448 | 72 | 213 | 0.0 | 0.0 | 0.00 | 0.00 | 0.00 | 98 | 1046.9 |
| 20260901035941 | 72 | 213 | 0.0 | 0.0 | 0.00 | 0.00 | 0.00 | 98 | 1046.9 |
| 20260901035436 | 72 | 213 | 0.0 | 0.0 | 0.00 | 0.00 | 0.00 | 98 | 1046.9 |
| 20260901034929 | 72 | 213 | 0.0 | 0.0 | 0.00 | 0.00 | 0.00 | 98 | 1047.1 |
| 20260901034424 | 72 | 213 | 0.0 | 0.0 | 0.00 | 0.00 | 0.00 | 98 | 1047.1 |
| 20260901033909 | 72 | 213 | 0.0 | 0.0 | 0.00 | 0.00 | 0.00 | 98 | 1047.1 |
| 20260901033412 | 72 | 213 | 0.0 | 0.0 | 0.00 | 0.00 | 0.00 | 98 | 1047.1 |
| 20260901032904 | 72 | 213 | 0.0 | 0.0 | 0.00 | 0.00 | 0.00 | 97 | 1047.1 |
| 20260901032359 | 72 | 213 | 0.0 | 0.0 | 0.00 | 0.00 | 0.00 | 97 | 1047.1 |
| 20260901032117 | 72 | 213 | 0.0 | 0.0 | 0.00 | 0.00 | 0.00 | 97 | 1047.1 |
| 20260901031348 | 72 | 213 | 0.0 | 0.0 | 0.00 | 0.00 | 0.00 | 97 | 1047.1 |
| 20260901030840 | 72 | 213 | 0.0 | 0.0 | 0.00 | 0.00 | 0.00 | 97 | 1047.1 |
| 20260901030329 | 72 | 213 | 0.0 | 0.0 | 0.00 | 0.00 | 0.00 | 97 | 1047.1 |
| 20260901025828 | 72 | 213 | 0.0 | 0.0 | 0.00 | 0.00 | 0.00 | 97 | 1047.1 |
| 20260901025323 | 72 | 213 | 0.0 | 0.0 | 0.00 | 0.00 | 0.00 | 97 | 1047.2 |
| 20260901024816 | 72 | 213 | 0.0 | 0.0 | 0.00 | 0.00 | 0.00 | 97 | 1047.2 |
| 20260901024535 | 71 | 213 | 0.0 | 0.0 | 0.00 | 0.00 | 0.00 | 97 | 1047.2 |